OBJECT H, 42832

Orbit data source: Space-Track

You're viewing an Uncataloged Satellite

Recently launched and/or uncataloged satellites may have evolving metadata. Metadata may include but not limited to: Owner, Maufacturer, Bus, Motor, and Mission.

OBJECT H, 42832 is a satellite in SSO that was launched on Fri, 14 Jul 2017 UTC via a SOYUZ-2-1A launch vehicle from the Tyuratam Missile And Space Complex (TTMTR). Unknown objects in Earth's orbit typically refer to objects detected orbiting the Earth but have not yet been identified or cataloged. These objects could be anything from previously untracked satellites, spent rocket stages, debris from satellite collisions, or even natural meteoroids temporarily captured by Earth's gravity.

Loading next visibility...
Identifier
42832, 2017-042H
Orbit
SSO
Country
Flag of TBDTBD
Related business
None
Manufacturer
Unknown
Mission
Non-operational Amateur Technology
Bus & Motor
Unknown
Mass
Unknown
Launch date (UTC)
2017-07-14 (9 years ago)
Launch vehicle
SOYUZ-2-1A
Launch site
Tyuratam Missile And Space Complex (TTMTR)
Object type
Unknown
Shape & HBR
Box, 0.1 m
Radar Cross Section
0.015 m², Small (<0.1 m²)

Expand to show TLE details & history
Last TLE update: 12 hours ago

TLE from 12 hours ago
0 OBJECT H
1 42832U 17042H   26034.45260039  .00006357  00000-0  43017-3 0  9996
2 42832  97.3995 199.9037 0009698 205.4752 154.6000 15.06815626466796
Epoch: 2026-02-03T10:51Z
TLE epoch observation values (Epoch: 2026-02-03T10:51:44.673Z)
Latitude
0.00004°
Longitude
-96.66577°
Altitude
555.079 km
Speed
7.581 km/s
True Right ascension
13h 19m 36s
True Declination
0° 00' 00"
Sunlit
Object was in full shadow at epoch
Visualization orbit readout
Latitude
Unknown
Longitude
Unknown
Altitude
Unknown
Speed
Unknown
Apparent Right ascension
Unknown
Apparent Declination
Unknown
Sunlit
N/A
Visualization observer readout
Local Sidereal Time
00:19:30
Azimuth
Unknown
Elevation
Unknown
Doppler factor
Unknown
Orbital elements
Apogee altitude
549.633 km
Perigee altitude
536.209 km
Semi-major axis
6,921.058 km
Eccentricity
0.00097
Inclination
97.3995°
RAAN
199.9037°
Arg. of periapsis
205.4752°
True anomaly
154.64762°
Mean anomaly
154.6°
Eccentric anomaly
154.62381°
Mean motion
3.76951 °/min
Orbital period
95.5 mins
BSTAR
0.00043017
Loading maneuver chart data...
Computing Atmospheric mass density...
Loading historical data...
Loading historical data...
Loading historical data...
Loading historical data...
Loading historical data...
Loading historical data...
Loading historical data...

Documentation

Showing up to 5 results
|